User: anonymous   Login
Location: Unspecified
(0.0000°N, 0.0000°E)
Time: 00:48:23
(UTC+00:00)
Language:

ONEWEB-0458 - Orbit

View from above orbital plane
View from above orbital plane
View from above satellite
View from above satellite

Ground track
Ground track

The orbit is defined by the following mean orbital elements,

1 51648U          26145.43440819 +.00000000 +00000-0 -21094-2 0 00007
2 51648  87.8862  40.7870 0001986  78.2123 281.9227 13.10374242    06
Epoch (UTC): 25 May 2026 10:25:32
Eccentricity: 0.0001986
inclination: 87.8862°
perigee height: 1220 km
apogee height: 1223 km
right ascension of ascending node: 40.7870°
argument of perigee: 78.2123°
revolutions per day: 13.10374242
mean anomaly at epoch: 281.9227°

The dashed part of the orbit path shows where the satellite is in the earth's shadow,  

DLR